Nenana, AK

10:59 PM AKST on February 20, 2018 (GMT -0900)
Nenana Municipal

Weather History for PANN - December, 2012

Change the Weather History Date:

Saturday, December 8, 2012

  Actual Average Record
Temperature  
Mean Temperature -12 °F -  
Max Temperature 8 °F 0 °F 57 °F (1960)
Min Temperature -32 °F -18 °F -32 °F (2012)
Degree Days  
Heating Degree Days 78    
Moisture  
Dew Point -13 °F    
Average Humidity 62    
Maximum Humidity 74    
Minimum Humidity 53    
Precipitation  
Precipitation 0.00 in - - ()
Sea Level Pressure  
Sea Level Pressure 29.88 in    
Wind  
Wind Speed 3 mph (ENE)    
Max Wind Speed 14 mph    
Max Gust Speed 24 mph    
Visibility 10 miles    
Events      
Averages and records for this station are not official NWS values.
T = Trace of Precipitation, MM = Missing Value Source: NWS Daily Summary

Daily Weather History Graph

Daily Weather History Graph

Search for Another Location

Airport or City:

Trip Planner

Search our weather history database for the weather conditions in past years. The results will help you decide how hot, cold, wet, or windy it might be!

Date:

Astronomy

Dec. 08, 2012 Rise Set
Actual Time 10:40 AM AKST 2:56 PM AKST
Civil Twilight 9:21 AM AKST 4:15 PM AKST
Nautical Twilight 8:12 AM AKST 5:24 PM AKST
Astronomical Twilight 7:12 AM AKST 6:24 PM AKST
Moon 3:23 AM AKST (12/8) 1:15 PM AKST (12/8)
Length of Visible Light 6h 53m
Length of Day
4h 16m
Waning Crescent, 27% of the Moon is Illuminated
Dec 8
Waning Crescent
Dec 12
New
Dec 19
First Quarter
Dec 28
Full
Jan 4
Last Quarter

Hourly Weather History & Observations

Time (AKST) Temp. Windchill Dew Point Humidity Pressure Visibility Wind Dir Wind Speed Gust Speed Precip Events Conditions
12:53 AM -31.0 °F - - N/A% 30.14 in 10.0 mi Calm Calm - N/A   Clear
1:53 AM -32.1 °F - - N/A% 30.13 in 10.0 mi Calm Calm - N/A   Clear
3:53 AM -29.9 °F - - N/A% 30.12 in 10.0 mi Calm Calm - N/A   Clear
4:53 AM -29.9 °F - - N/A% 30.11 in 10.0 mi Calm Calm - N/A   Clear
5:53 AM -31.0 °F - - N/A% 30.09 in 10.0 mi Calm Calm - N/A   Clear
6:53 AM -32.1 °F - - N/A% 30.08 in 10.0 mi Calm Calm - N/A   Clear
7:53 AM -31.0 °F - - N/A% 30.07 in 10.0 mi Calm Calm - N/A   Clear
8:53 AM -31.0 °F - - N/A% 30.06 in 10.0 mi Calm Calm - N/A   Clear
9:53 AM -29.9 °F - - N/A% 30.03 in 10.0 mi Calm Calm - N/A   Clear
10:53 AM -27.9 °F - -34.1 °F 73% 30.00 in 10.0 mi Calm Calm - N/A   Clear
11:53 AM -25.1 °F - -31.0 °F 74% 29.99 in 10.0 mi Calm Calm - N/A   Clear
12:53 PM -6.0 °F -21.5 °F -14.1 °F 68% 29.94 in 10.0 mi ENE 8.1 mph - N/A   Clear
1:53 PM -2.9 °F -17.7 °F -11.9 °F 65% 29.90 in 10.0 mi ENE 8.1 mph 16.1 mph N/A   Clear
2:53 PM -2.0 °F -21.2 °F -11.9 °F 63% 29.83 in 10.0 mi ENE 13.8 mph 19.6 mph N/A   Clear
3:53 PM -0.9 °F -16.4 °F -11.0 °F 62% 29.78 in 10.0 mi ENE 9.2 mph 16.1 mph N/A   Clear
4:53 PM -0.0 °F -18.7 °F -11.0 °F 60% 29.73 in 10.0 mi ENE 13.8 mph 21.9 mph N/A   Clear
5:53 PM 1.0 °F -15.8 °F -9.9 °F 60% 29.70 in 10.0 mi ENE 11.5 mph 21.9 mph N/A   Clear
6:53 PM 3.0 °F -14.8 °F -9.0 °F 57% 29.67 in 10.0 mi ENE 13.8 mph 21.9 mph N/A   Clear
7:53 PM 3.0 °F -14.1 °F -8.0 °F 60% 29.63 in 10.0 mi ENE 12.7 mph - N/A   Clear
8:53 PM 3.9 °F -12.2 °F -7.1 °F 60% 29.60 in 10.0 mi ENE 11.5 mph - N/A   Mostly Cloudy
9:53 PM 5.0 °F -10.0 °F -7.1 °F 58% 29.56 in 10.0 mi ENE 10.4 mph 19.6 mph N/A   Overcast
10:53 PM 7.0 °F -4.5 °F -7.1 °F 53% 29.52 in 10.0 mi ENE 6.9 mph - N/A   Mostly Cloudy
11:53 PM 8.1 °F -7.0 °F -4.0 °F 58% 29.49 in 10.0 mi ENE 11.5 mph 24.2 mph N/A   Overcast